Voltar ao catálogo

STARLINK-36438

AtivoComunicaçõesVLEO
NORAD 67625·PAYLOAD·🇺🇸 United States

Lançado Jan 30, 2026 de Cape Canaveral Space Force Station

Loading…

Próximas Passagens (próximas 24 horas)

TLE

AtualizadoSource: CelesTrak SupGP

Época: Sep 14, 2026, 22:36 UTC

1 67625C 26020J   26257.94215278 -.00064484  00000+0 -23355-2 0  2570
2 67625  42.9995 151.0352 0001459 268.4844 203.5268 15.27611954    16

Acompanhe STARLINK-36438 em tempo real com AllMySat

Download on the App Store